Weather History for KSKX - February, 2013

Change the Weather History Date:

Saturday, February 23, 2013

  Actual Average Record
Temperature  
Mean Temperature 22 °F -  
Max Temperature 37 °F 41 °F 60 °F (2002)
Min Temperature 8 °F 17 °F 8 °F (1999)
Degree Days  
Heating Degree Days 42    
Moisture  
Dew Point 13 °F    
Average Humidity 63    
Maximum Humidity 86    
Minimum Humidity 36    
Precipitation  
Precipitation 0.00 in - - ()
Sea Level Pressure  
Sea Level Pressure 29.86 in    
Wind  
Wind Speed 6 mph (WSW)    
Max Wind Speed 21 mph    
Max Gust Speed 23 mph    
Visibility 10 miles    
Events      
Averages and records for this station are not official NWS values.
T = Trace of Precipitation, MM = Missing Value Source: NWS Daily Summary

Daily Weather History Graph

Daily Weather History Graph

Search for Another Location

Airport or City:

Trip Planner

Search our weather history database for the weather conditions in past years. The results will help you decide how hot, cold, wet, or windy it might be!

Date:

Astronomy

Feb. 23, 2013 Rise Set
Actual Time 6:40 AM MST 5:51 PM MST
Civil Twilight 6:14 AM MST 6:17 PM MST
Nautical Twilight 5:44 AM MST 6:47 PM MST
Astronomical Twilight 5:14 AM MST 7:17 PM MST
Moon 4:06 PM MST (2/23) 5:02 AM MST (2/23)
Length of Visible Light 12h 03m
Length of Day
11h 11m
Waxing Gibbous, 95% of the Moon is Illuminated
Feb 23
Waxing Gibbous
Feb 25
Full
Mar 4
Last Quarter
Mar 11
New
Mar 19
First Quarter

Hourly Weather History & Observations

Time (MST) Temp. Windchill Dew Point Humidity Pressure Visibility Wind Dir Wind Speed Gust Speed Precip Events Conditions
12:15 AM 19.4 °F 11.5 °F 12.2 °F 74% 29.95 in 10.0 mi West 5.8 mph - N/A   Mostly Cloudy
12:35 AM 17.6 °F 6.4 °F 12.2 °F 79% 29.95 in 10.0 mi WSW 9.2 mph - N/A   Scattered Clouds
12:55 AM 17.6 °F 7.3 °F 12.2 °F 79% 29.96 in 10.0 mi West 8.1 mph - N/A   Mostly Cloudy
1:15 AM 19.4 °F 10.4 °F 12.2 °F 74% 29.96 in 10.0 mi West 6.9 mph - N/A   Overcast
1:35 AM 19.4 °F 9.5 °F 14.0 °F 80% 29.97 in 10.0 mi West 8.1 mph - N/A   Overcast
1:55 AM 19.4 °F 7.9 °F 12.2 °F 74% 29.97 in 10.0 mi WSW 10.4 mph - N/A   Overcast
2:15 AM 19.4 °F 11.5 °F 12.2 °F 74% 29.97 in 10.0 mi NW 5.8 mph - N/A   Overcast
2:35 AM 17.6 °F 12.3 °F 12.2 °F 79% 29.97 in 10.0 mi NW 3.5 mph - N/A   Mostly Cloudy
2:55 AM 17.6 °F 12.3 °F 12.2 °F 79% 29.96 in 10.0 mi WNW 3.5 mph - N/A   Overcast
3:15 AM 15.8 °F - 10.4 °F 79% 29.96 in 10.0 mi Calm Calm - N/A   Partly Cloudy
3:35 AM 15.8 °F 10.2 °F 8.6 °F 73% 29.96 in 10.0 mi WNW 3.5 mph - N/A   Clear
3:55 AM 12.2 °F 4.3 °F 6.8 °F 79% 29.95 in 10.0 mi WNW 4.6 mph - N/A   Clear
4:15 AM 12.2 °F 6.1 °F 5.0 °F 73% 29.95 in 10.0 mi NW 3.5 mph - N/A   Clear
4:35 AM 12.2 °F 4.3 °F 6.8 °F 79% 29.96 in 10.0 mi NW 4.6 mph - N/A   Clear
4:55 AM 12.2 °F 6.1 °F 5.0 °F 73% 29.96 in 10.0 mi North 3.5 mph - N/A   Clear
5:15 AM 12.2 °F 6.1 °F 6.8 °F 79% 29.95 in 10.0 mi North 3.5 mph - N/A   Clear
5:35 AM 12.2 °F - 8.6 °F 85% 29.96 in 10.0 mi Calm Calm - N/A   Clear
5:55 AM 14.0 °F - 8.6 °F 79% 29.96 in 10.0 mi Calm Calm - N/A   Clear
6:15 AM 8.6 °F -2.6 °F 1.4 °F 73% 29.96 in 10.0 mi NW 6.9 mph - N/A   Clear
6:35 AM 8.6 °F 0.1 °F 3.2 °F 79% 29.96 in 10.0 mi North 4.6 mph - N/A   Clear
6:55 AM 10.4 °F - 6.8 °F 85% 29.98 in 10.0 mi Calm Calm - N/A   Clear
7:15 AM 10.4 °F - 6.8 °F 85% 29.98 in 10.0 mi Calm Calm - N/A   Clear
7:35 AM 14.0 °F - 10.4 °F 86% 30.00 in 10.0 mi Calm Calm - N/A   Clear
7:55 AM 17.6 °F - 12.2 °F 79% 30.01 in 10.0 mi Calm Calm - N/A   Clear
8:15 AM 21.2 °F - 12.2 °F 68% 30.00 in 10.0 mi Calm Calm - N/A   Clear
8:35 AM 21.2 °F - 10.4 °F 63% 30.00 in 10.0 mi Calm Calm - N/A   Clear
8:55 AM 21.2 °F - 10.4 °F 63% 30.00 in 10.0 mi Calm Calm - N/A   Clear
9:15 AM 23.0 °F 18.4 °F 10.4 °F 59% 30.00 in 10.0 mi West 3.5 mph - N/A   Clear
9:35 AM 24.8 °F 20.5 °F 10.4 °F 54% 29.98 in 10.0 mi West 3.5 mph - N/A   Clear
9:55 AM 24.8 °F 17.9 °F 10.4 °F 54% 29.98 in 10.0 mi WSW 5.8 mph - N/A   Clear
10:15 AM 26.6 °F 19.1 °F 10.4 °F 51% 29.97 in 10.0 mi SW 6.9 mph - N/A   Clear
10:35 AM 28.4 °F 20.4 °F 10.4 °F 47% 29.96 in 10.0 mi SW 8.1 mph - N/A   Clear
11:15 AM 28.4 °F 20.4 °F 10.4 °F 47% 29.94 in 10.0 mi WSW 8.1 mph - N/A   Clear
11:35 AM 30.2 °F 23.4 °F 12.2 °F 47% 29.93 in 10.0 mi WSW 6.9 mph - N/A   Clear
11:55 AM 30.2 °F 25.4 °F 12.2 °F 47% 29.92 in 10.0 mi SW 4.6 mph - N/A   Clear
12:15 PM 30.2 °F - 12.2 °F 47% 29.90 in 10.0 mi Calm Calm - N/A   Clear
12:35 PM 33.8 °F 29.6 °F 12.2 °F 41% 29.87 in 10.0 mi WSW 4.6 mph - N/A   Clear
12:55 PM 33.8 °F 27.7 °F 12.2 °F 41% 29.86 in 10.0 mi West 6.9 mph - N/A   Clear
1:15 PM 35.6 °F 28.6 °F 12.2 °F 38% 29.85 in 10.0 mi SW 9.2 mph - N/A   Clear
1:35 PM 35.6 °F 29.2 °F 12.2 °F 38% 29.84 in 10.0 mi SW 8.1 mph - N/A   Clear
1:55 PM 37.4 °F 30.8 °F 12.2 °F 36% 29.82 in 10.0 mi SW 9.2 mph - N/A   Clear
2:15 PM 37.4 °F 30.3 °F 12.2 °F 36% 29.81 in 10.0 mi SW 10.4 mph - N/A   Clear
2:35 PM 37.4 °F 30.3 °F 15.8 °F 41% 29.81 in 10.0 mi SW 10.4 mph - N/A   Clear
2:55 PM 37.4 °F 29.3 °F 15.8 °F 41% 29.80 in 10.0 mi SW 12.7 mph 16.1 mph N/A   Clear
3:15 PM 37.4 °F 29.3 °F 17.6 °F 45% 29.79 in 10.0 mi SW 12.7 mph 23.0 mph N/A   Clear
3:35 PM 37.4 °F 28.2 °F 17.6 °F 45% 29.77 in 10.0 mi SW 16.1 mph 21.9 mph N/A   Clear
3:55 PM 37.4 °F 27.8 °F 17.6 °F 45% 29.75 in 10.0 mi WSW 17.3 mph - N/A   Clear
4:15 PM 37.4 °F 28.2 °F 17.6 °F 45% 29.76 in 10.0 mi WSW 16.1 mph - N/A   Clear
4:35 PM 37.4 °F 26.9 °F 17.6 °F 45% 29.75 in 10.0 mi WSW 20.7 mph - N/A   Clear
4:55 PM 37.4 °F 28.9 °F 17.6 °F 45% 29.76 in 10.0 mi West 13.8 mph - N/A   Mostly Cloudy
5:15 PM 35.6 °F 28.0 °F 17.6 °F 48% 29.76 in 10.0 mi WSW 10.4 mph - N/A   Mostly Cloudy
5:55 PM 33.8 °F - 15.8 °F 48% 29.75 in 10.0 mi Calm Calm - N/A   Clear
6:15 PM 33.8 °F - 15.8 °F 48% 29.75 in 10.0 mi Calm Calm - N/A   Clear
6:35 PM 30.2 °F 25.4 °F 17.6 °F 60% 29.74 in 10.0 mi ESE 4.6 mph - N/A   Clear
6:55 PM 28.4 °F 19.7 °F 19.4 °F 69% 29.74 in 10.0 mi East 9.2 mph - N/A   Clear
7:15 PM 26.6 °F 18.2 °F 19.4 °F 74% 29.73 in 10.0 mi ESE 8.1 mph - N/A   Clear
7:35 PM 26.6 °F 18.2 °F 17.6 °F 69% 29.73 in 10.0 mi ESE 8.1 mph - N/A   Clear
7:55 PM 26.6 °F - 17.6 °F 69% 29.73 in 10.0 mi Calm Calm - N/A   Clear
8:15 PM 26.6 °F 20.0 °F 19.4 °F 74% 29.73 in 10.0 mi West 5.8 mph - N/A   Scattered Clouds
8:35 PM 26.6 °F 22.6 °F 19.4 °F 74% 29.73 in 10.0 mi North 3.5 mph - N/A   Overcast
8:55 PM 28.4 °F 24.6 °F 19.4 °F 69% 29.74 in 10.0 mi NE 3.5 mph - N/A   Overcast
9:15 PM 28.4 °F 23.3 °F 19.4 °F 69% 29.73 in 10.0 mi NE 4.6 mph - N/A   Overcast
9:35 PM 26.6 °F 22.6 °F 19.4 °F 74% 29.73 in 10.0 mi East 3.5 mph - N/A   Mostly Cloudy
9:55 PM 26.6 °F 19.1 °F 19.4 °F 74% 29.72 in 10.0 mi ESE 6.9 mph - N/A   Scattered Clouds
10:15 PM 26.6 °F 18.2 °F 19.4 °F 74% 29.71 in 10.0 mi ESE 8.1 mph - N/A   Clear
10:35 PM 28.4 °F 22.2 °F 19.4 °F 69% 29.70 in 10.0 mi SE 5.8 mph - N/A   Mostly Cloudy
10:55 PM 30.2 °F 23.4 °F 19.4 °F 64% 29.70 in 10.0 mi SSE 6.9 mph - N/A   Overcast
11:15 PM 32.0 °F 26.4 °F 15.8 °F 51% 29.70 in 10.0 mi South 5.8 mph - N/A   Overcast
11:35 PM 32.0 °F 28.7 °F 17.6 °F 55% 29.70 in 10.0 mi South 3.5 mph - N/A   Mostly Cloudy
11:55 PM 33.8 °F 30.8 °F 15.8 °F 48% 29.70 in 10.0 mi SW 3.5 mph - N/A   Overcast